Tracking 29594 objects as of 20-Sep-2024
HD Live streaming from Space Station
objects crossing your sky now

SL-8 DEB

Track SL-8 DEB now!
10-day predictions


NORAD ID: 25085
Int'l Code: 1991-009CX
Perigee: 1,434.2 km
Apogee: 1,730.6 km
Inclination: 74.1 °
Period: 117.6 minutes
Semi major axis: 7953 km
RCS: 0.0159 m2 (small)
Launch date: February 12, 1991
Source: Commonwealth of Independent States (former USSR) (CIS)
Launch site: PLESETSK MISSILE AND SPACE COMPLEX (PKMTR)

Note: This is SATELLITE DEBRIS
Your satellite tracking list
Your tracking list is empty




NASA's NSSDC Master Catalog

Two Line Element Set (TLE):
1 25085U 91009CX  24264.52736185  .00000426  00000-0  38371-2 0  9990
2 25085  74.1083 289.9361 0186361 313.8104 202.7400 12.23976143333370
Source of the keplerian elements: AFSPC